This is the latest recevied weather packets stored in our database for station/object KF0TNT. If no packets are shown the sender has not sent any weather packets the latest 10 day(s).
| Time | Temp. | Humidity | Pressure | Rain* | Wind** | Luminosity | Snow |
|---|---|---|---|---|---|---|---|
| 1777751270 | 15.56° C | 23% | 1023.5 hPa | 0 mm | - | 940 W/m² | - |
| 1777750967 | 16.67° C | 22% | 1023.6 hPa | 0 mm | - | 942 W/m² | - |
| 1777750663 | 16.11° C | 21% | 1023.5 hPa | 0 mm | - | 947 W/m² | - |
| 1777750360 | 16.11° C | 22% | 1023.8 hPa | 0 mm | - | 951 W/m² | - |
| 1777750060 | 15.56° C | 22% | 1023.6 hPa | 0 mm | - | 951 W/m² | - |
| 1777749758 | 15.56° C | 22% | 1023.5 hPa | 0 mm | - | 951 W/m² | - |
| 1777749455 | 15.56° C | 23% | 1023.7 hPa | 0 mm | - | 950 W/m² | - |
| 1777749153 | 15.56° C | 22% | 1023.6 hPa | 0 mm | - | 952 W/m² | - |
| 1777748850 | 15.56° C | 23% | 1023.6 hPa | 0 mm | - | 952 W/m² | - |
| 1777748547 | 15.56° C | 23% | 1023.7 hPa | 0 mm | - | 952 W/m² | - |
| 1777748247 | 15.56° C | 23% | 1024.1 hPa | 0 mm | - | 951 W/m² | - |
| 1777747944 | 15.56° C | 23% | 1024 hPa | 0 mm | - | 951 W/m² | - |
| 1777747640 | 15.56° C | 23% | 1024.1 hPa | 0 mm | - | 947 W/m² | - |
| 1777747336 | 15.56° C | 22% | 1024.2 hPa | 0 mm | - | 943 W/m² | - |
| 1777747033 | 15.56° C | 23% | 1024.1 hPa | 0 mm | - | 943 W/m² | - |
| 1777746728 | 15.56° C | 24% | 1024.2 hPa | 0 mm | - | 938 W/m² | - |
| 1777746424 | 15° C | 23% | 1024 hPa | 0 mm | - | 937 W/m² | - |
| 1777746119 | 15° C | 24% | 1024.3 hPa | 0 mm | - | 934 W/m² | - |
| 1777745817 | 15.56° C | 23% | 1024.2 hPa | 0 mm | - | 924 W/m² | - |
| 1777745516 | 15° C | 24% | 1024.3 hPa | 0 mm | - | 918 W/m² | - |
| 1777745213 | 15° C | 24% | 1024.2 hPa | 0 mm | - | 914 W/m² | - |
| 1777744910 | 13.89° C | 24% | 1024.3 hPa | 0 mm | - | 906 W/m² | - |
| 1777744609 | 14.44° C | 24% | 1024.5 hPa | 0 mm | - | 906 W/m² | - |
| 1777744305 | 13.89° C | 24% | 1024.6 hPa | 0 mm | - | 900 W/m² | - |
| 1777744002 | 13.89° C | 23% | 1024.5 hPa | 0 mm | - | 893 W/m² | - |
* Rain latest hour (hover to see other rain measurements)
** Current wind speed in m/s (hover to see current wind gust speed)